Regional Weather Roundup
Issued by NWS

Home | Current Version | Previous Version | Graphics & Text | Print | Product List | Glossary On
Versions: 1 2 3 4 5 6 7 8 9 10 11 12 13 14 15 16 17 18 19 20 21 22 23 24 25 26 27 28 29 30 31 32 33 34 35 36 37 38 39 40 41 42 43 44 45 46 47 48 49 50
000
ASUS43 KFSD 241910
RWRSD

WEATHER ROUNDUP FOR SOUTH DAKOTA
NATIONAL WEATHER SERVICE SIOUX FALLS SD
200 PM CDT WED MAY 24 2017

NOTE: "FAIR" INDICATES FEW OR NO CLOUDS BELOW 12,000 FEET WITH NO
SIGNIFICANT WEATHER AND/OR OBSTRUCTIONS TO VISIBILITY.


SDZ001>005-009-010-012>017-242000-
NORTHWEST AND NORTH CENTRAL SOUTH DAKOTA

CITY           SKY/WX    TMP DP  RH WIND       PRES   REMARKS
BUFFALO          N/A     71  40  32 S30G37    29.40F
FAITH            N/A     66  39  37 S21       29.56F
MOBRIDGE       SUNNY     65  41  41 S20G26    29.60F
$$

SDZ012>016-024>037-041>051-057-063-072>074-242000-
SOUTHWEST AND SOUTH CENTRAL SOUTH DAKOTA

CITY           SKY/WX    TMP DP  RH WIND       PRES   REMARKS
RAPID CTY ARPT SUNNY     70  43  37 S22G33    29.54F
PIERRE         SUNNY     64  40  41 S16G26    29.64F
CUSTER         SUNNY     66  36  32 VRB6      29.61F
ELLSWORTH AFB  SUNNY     70  43  37 S24G33    29.51F
PHILIP         SUNNY     69  38  32 SE18G28   29.59F
PINE RIDGE     SUNNY     71  45  39 S15G25    29.59F
SPEARFISH      LGT RAIN  72  48  43 E7        29.50F
WINNER         FAIR      63  45  51 S13G18    29.68F
$$

SDZ004>011-016>023-039-040-242000-
NORTHEAST SOUTH DAKOTA

CITY           SKY/WX    TMP DP  RH WIND       PRES   REMARKS
ABERDEEN       PTSUNNY   62  40  44 S9G22     29.69F
WATERTOWN      CLOUDY    57  43  59 VRB3      29.71F
BROOKINGS      CLOUDY    58  44  60 MISG        N/A
SISSETON         N/A     59  45  59 S7        29.72F
$$

SDZ017-020-022-023-036>040-048>070-242000-
SOUTHEAST SOUTH DAKOTA

CITY           SKY/WX    TMP DP  RH WIND       PRES   REMARKS
SIOUX FALLS    CLOUDY    61  46  57 CALM      29.72F
HURON          PTSUNNY   62  45  53 S10       29.70F
CHAMBERLAIN    MOSUNNY   64  46  50 S9        29.68F
MITCHELL       PTSUNNY   62  45  53 SE5G17    29.72F
YANKTON          N/A     59  46  62 E8        29.73F
$$

ABBREVIATIONS USED IN REMARKS
   TC - TEMPERATURE IN CELSIUS
  WCI - WIND CHILL INDEX
   HX - HEAT INDEX
  VSB - VISIBILITY




USA.gov is the U.S. government's official web portal to all federal, state and local government web resources and services.